Location: Linz
(48.3300°N, 14.3000°E)
Time: 15:57:20
(UTC+01:00)

OTV 5 (USA 277) - Pass Details

Date: 15 November 2017
Orbit: 404 x 417 km, 43.0° (Epoch: 07 September)

Event Time Altitude Azimuth Distance (km) Brightness Sun altitude
Exits shadow 04:13:47 13° 114° (ESE) 1,287 ? -29.2°
Drops below altitude 10° 04:14:17 10° 109° (ESE) 1,456 ? -29.1°
Sets 04:16:32 0° 98° (E) 2,316 ? -28.7°
